Погода в Аподаке

Мексика     25°46′18″N   100°10′40″W
темп.,
°C
ветер,
м/с
пор.,
м/с
влажн.,
%
обл.,
%
осадки,
мм/ч
давл.,
гПа
погр.,
м
12 июня, сб
сб1201:00+26в24600 0.0 1011325
04:00+24св11710 0.0 1009135
07:00+23всв1274100 0.0 1010130
10:00+27всв2252100 0.0 1012543
13:00+34вюв462898 0.0 10101725
16:00+35вюв8926100 0.0 10102434
19:00+34в7930100 0.0 10092357
22:00+29вюв71049100 0.0 1012957
13 июня, вс
вс1301:00+25вюв35665 0.0 1013466
04:00+23в127857 0.0 1013270
07:00+22ссв11845 0.0 1014160
10:00+27всв11615 0.0 1015632
13:00+33в343315 0.0 10131634
16:00+36в772498 0.0 10102476
19:00+34в882898 0.0 10102357
22:00+30вюв5104352 0.0 1012895
14 июня, пн
пн1401:00+26вюв35585 0.0 1013276
04:00+23св11745 0.0 1013148
07:00+23ссз227931 0.0 1013125
10:00+28в11525 0.0 1014538
13:00+35в33243 0.0 10121973
16:00+37в65194 0.0 10102953
19:00+34в76253 0.0 10102570
22:00+29в610423 0.0 1012745
15 июня, вт
вт1501:00+25вюв35705 1.4 1014303
04:00+24св11775 0.0 1013170
07:00+23ссз11795 0.0 1014131
10:00+27всв22575 1.0 1015474
13:00+32вюв233970 2.0 10142234
16:00+31св244399 0.8 10131710
19:00+30всв234542 1.4 10131200
22:00+27ююв345861 0.3 1014363
16 июня, ср
ср1601:00+25вюв237024 0.4 1015214
04:00+23в11760 0.5 101481
07:00+23св00780 0.5 101568
10:00+27всв12570 0.0 1016727
13:00+31вюв444371 1.0 10142106
16:00+32юв563667 0.8 10122361
19:00+31вюв573695 0.9 10121833
22:00+26юв466669 4.0 1015471